Location: Newark
(41.1192°N, 81.5292°W)
Time: 23:19:04
(UTC+00:00)

Hubble Space Telescope - Visible Passes

Search period start: 16 November 2019 00:00
Search period end: 26 November 2019 00:00
Orbit: 536 x 540 km, 28.5° (Epoch: 16 November)

Date Brightness Start Highest point End Pass type
(mag) Time Alt. Az. Time Alt. Az. Time Alt. Az.
20 Nov 3.5 00:29:42 10° SSW 00:30:01 11° SSW 00:30:01 11° SSW visible
21 Nov 3.3 00:18:45 10° SSW 00:20:03 13° S 00:20:03 13° S visible
22 Nov 3.1 00:07:53 10° SSW 00:10:00 14° S 00:10:04 14° S visible
22 Nov 3.1 23:57:07 10° SSW 23:59:18 14° S 00:00:06 13° SSE visible
23 Nov 3.1 23:46:24 10° SSW 23:48:34 14° S 23:50:10 12° SSE visible
24 Nov 3.3 23:35:45 10° SW 23:37:51 14° S 23:39:56 10° SSE visible
25 Nov 3.3 23:25:12 10° SW 23:27:08 13° S 23:29:03 10° SSE visible
